Regional Weather Roundup
Issued by NWS Pendleton, OR

Home | Current Version | Previous Version | Text Only | Print | Product List | Glossary On
Versions: 1 2 3 4 5 6 7 8 9 10 11 12 13 14 15 16 17 18 19 20 21 22 23 24 25 26 27 28 29 30 31 32 33 34 35 36 37 38 39 40 41 42 43 44 45 46 47 48 49 50
000
ASUS46 KPDT 241025
RWRPDT
PENDLETON REGIONAL WEATHER ROUNDUP
NATIONAL WEATHER SERVICE PENDLETON OREGON
300 AM PDT SUN JUL 24 2016

NOTE: FAIR INDICATES FEW OR NO CLOUDS BELOW 12,000 FEET WITH NO
SIGNIFICANT WEATHER AND/OR OBSTRUCTIONS TO VISIBILITY.

# INDICATES UNOFFICIAL STATION AND DATA

WAZ520-241110-
EAST SLOPES OF WASHINGTON CASCADES

CITY            SKY/WX      TMP DP  RH  WIND    PRES   REMARKS
#CLE ELUM HS    N/A         51  46  83  CALM    30.08F
#CLE ELUM 2NW   N/A         48  46  93  W1      N/A
#GLENWOOD       N/A         47  45  93  CALM    30.06S
#MANASTASH CYN  N/A         51  40  66  CALM    30.09F
#NELSON 3SW     N/A         47  41  79  CALM    30.25S
#NILE           N/A         51  46  83  CALM    29.36F
#RONALD 2NW     N/A         49  N/A N/A N2      30.19F
#TEANAWAY 4NE   N/A         49  47  93  CALM    N/A
#TROUT LAKE 1NE N/A         49  46  89  CALM    30.04F
#TROUT LAKE 1E  N/A         50  47  89  CALM    30.06F
$$

WAZ521-241110-
SIMCOE HIGHLANDS

CITY            SKY/WX      TMP DP  RH  WIND    PRES   REMARKS
#CENTERVILLE 1SWN/A         50  44  80  CALM    30.00F
#GOLDENDALE 1NE N/A         53  40  61  N3      N/A
#GOLDENDALE 4W  N/A         52  51  96  CALM    30.11F
#LYLE 6NE       N/A         57  52  83  SE5     30.01F
$$

WAZ026-241110-
KITTITAS VALLEY

CITY            SKY/WX      TMP DP  RH  WIND    PRES   REMARKS
ELLENSBURG AP   CLEAR       52  46  80  NE5     30.10F
#ELLENSBURG CWU N/A         56  49  77  N5      30.00F
#ELLENSBURG 3NE N/A         52  48  86  CALM    30.10S
#ELLENSBURG     N/A         58  53  83  N1      N/A
#KITTITAS 4N    N/A         52  45  77  E2      30.12S
#KITTITAS 3S    N/A         53  48  83  CALM    30.03F
#THORP 6N       N/A         52  48  86  N10     30.06F
$$

WAZ027-241110-
YAKIMA VALLEY

CITY            SKY/WX      TMP DP  RH  WIND    PRES   REMARKS
SUNNYSIDE AP    CLEAR       53  50  89  N3      30.06S
YAKIMA AIRPORT  CLEAR       62  46  56  W9      30.08F
YAKIMA-VAGABOND N/A         59  44  57  E13     30.07F
#DONALD 2NE     N/A         68  11  11  W1      30.04F
#GRANDVIEW      N/A         59  51  75  CALM    30.04S
#MABTON         N/A         59  48  67  CALM    30.04S
#NACHES 2SW     N/A         60  49  67  W5      30.11S
#TERRACE HTS    N/A         60  46  60  CALM    29.98F
#WEST VALLEY    N/A         63  48  58  NW1     30.03S
#W YAKIMA       N/A         62  48  60  N2      30.03F
#WHITE SWAN 5E  N/A         55  47  74  CALM    30.03F
#WILEY CITY 3W  N/A         54  43  66  CALM    30.06S
$$

WAZ028-241110-
LOWER COLUMBIA BASIN...WASHINGTON

CITY            SKY/WX      TMP DP  RH  WIND    PRES   REMARKS
PASCO           CLEAR       58  50  75  N3      30.05S
PROSSER AWOS    N/A         57  52  83  CALM    30.09R
RICHLAND AWOS   CLEAR       65  52  63  CALM    30.06R
#BENTON CITY    N/A         59  51  75  CALM    29.94R
#CONNELL 5N     N/A         58  49  72  N2      30.03S
#CONNELL 5NW    N/A         58  50  75  CALM    29.99S
#ELTOPIA 6NW    N/A         59  52  78  CALM    29.03S
#KAHLOTUS       N/A         57  41  55  S7      30.02F
#KENNEWICK 3S   N/A         64  48  56  CALM    30.02S
#PATERSON       N/A         61  52  72  SE2     30.01S
#SAGEMOOR 2W    N/A         58  50  75  N1      29.88R
#TOUCHET 2S     N/A         50  46  86  CALM    30.01S
#WEST PASCO     N/A         62  50  65  CALM    30.03S
$$

WAZ029-241110-
FOOTHILLS OF THE BLUES...WASHINGTON

CITY            SKY/WX      TMP DP  RH  WIND    PRES   REMARKS
WALLA WALLA AP  CLEAR       60  41  49  E8      30.06S
#CLYDE 6NW      N/A         54  42  64  CALM    30.02F
#LOWDEN 2SE     N/A         52  47  83  CALM    30.01S
#PLEASANT VIEW 1N/A         64  42  45  CALM    30.04F
#PRESCOTT       N/A         54  44  69  CALM    30.02S
#WHITMAN COLLEGEN/A         65  46  50  CALM    30.06F
#WAITSBURG 5S   N/A         56  41  57  N1      30.10F
#WAITSBURG 8N   N/A         52  18  26  CALM    30.04S
#WALLA WALLA U  N/A         63  50  62  CALM    30.01F
#WHITMAN MISSIONN/A         55  49  80  CALM    30.04R
$$

WAZ030-241110-
BLUE MOUNTAINS...WASHINGTON

CITY            SKY/WX      TMP DP  RH  WIND    PRES   REMARKS
#DIXIE 5SE      N/A         67  38  34  CALM    30.06S
$$

ORZ009-041-WAZ024-241110-
COLUMBIA RIVER GORGE

CITY            SKY/WX      TMP DP  RH  WIND    PRES   REMARKS
HOOD RIVER AP   CLEAR       55  48  77  S5      30.09F
THE DALLES AP   CLEAR       63  48  58  W8      30.06S
#ARLINGTON AIRPON/A         63  52  67  W6      30.03S
#LYLE           N/A         63  54  72  CALM    30.07F
#MARYHILL 2W    N/A         63  55  75  S1      N/A
#MOSIER 1S      N/A         60  44  55  CALM    30.06F
#MURDOCK        N/A         65  54  68  NW14    30.01F
#RUFUS DOT      N/A         68  52  57  W8      N/A
#SMITHVILLE     N/A         64  54  70  W12     30.05S

$$

ORZ510-241110-
NORTH CENTRAL OREGON

CITY            SKY/WX      TMP DP  RH  WIND    PRES   REMARKS
#ANTELOPE       N/A         50  38  63  N2      29.89F
#CHENOWITH 1W   N/A         57  51  80  NW17    N/A
#COW CYN RST AREN/A         61  N/A N/A N2      N/A
#DUFUR 9E       N/A         61  47  60  W5      30.08F
#GRASS VALLEY 1SN/A         52  42  69  CALM    30.04F
#KENT DOT       N/A         54  35  48  N2      N/A
#SHANIKO 5WSW   N/A         59  32  36  N5      N/A
#SHANIKO 4NW    N/A         61  46  58  N2      30.15F
#TYGH VALLEY 2NEN/A         54  41  61  CALM    30.04F
#WAPANITIA AIRPON/A         55  45  69  CALM    30.04F
#WASCO DOT      N/A         54  48  80  CALM    N/A
#WASCO AIRPORT  N/A         57  49  75  W6      N/A
#WASCO 5NE      N/A         57  50  77  CALM    30.02S
$$

ORZ511-241110-
CENTRAL OREGON

CITY            SKY/WX      TMP DP  RH  WIND    PRES   REMARKS
BEND AIRPORT    CLEAR       52  41  66  CALM    30.14F
MADRAS AIRPORT  CLEAR       55  39  55  SE6     30.13F
PRINEVILLE AP   CLEAR       52  41  66  CALM    30.14S
REDMOND AIRPORT CLEAR       51  35  54  S5      30.13F
#ASHWOOD SCHOOL N/A         53  39  59  CALM    30.07F
#BEND 1SW       N/A         48  39  71  CALM    N/A
#BEND-AWBREY    N/A         56  40  55  CALM    30.13F
#CULVER         N/A         53  39  59  CALM    29.96F
#CULVER 8W      N/A         54  43  66  CALM    30.09F
#LAKE BILLY CHINN/A         56  N/A N/A CALM    30.17S
#MADRAS 4S      N/A         50  10  19  S5      30.17F
#POWELL BUTTE 3EN/A         51  40  66  E1      N/A
#POWELL BUTTE   N/A         55  37  51  SW1     30.06F
#PRINEVILLE 3N  N/A         49  43  80  CALM    30.08S
#WARM SPRINGS   N/A         60  41  49  CALM    30.06F

$$


ORZ509-241110-
EAST SLOPES OF OREGON CASCADES

CITY            SKY/WX      TMP DP  RH  WIND    PRES   REMARKS
SISTERS AWOS    N/A         48  43  83  CALM    30.11F
#CAMP SHERMAN   N/A         45  40  82  CALM    30.09S
#LA PINE DOT    N/A         48  39  71  CALM    N/A
#LA PINE 4NW    N/A         44  38  79  CALM    30.06F
#LAVA BUTTE DOT N/A         48  37  65  CALM    N/A
#SISTERS AIRPOR N/A         46  45  96  N1      30.17S
#SISTERS ODOT   N/A         47  N/A N/A CALM    N/A
#SISTERS 3N     N/A         46  35  65  CALM    30.11S
#SUNRIVER       N/A         50  42  74  CALM    30.02F
#TUMALO 3W      N/A         61  37  41  CALM    29.88F
#WANOGA BUTTE D N/A         54  36  50  NE2     N/A

$$

ORZ044-241110-
LOWER COLUMBIA BASIN...OREGON

CITY            SKY/WX      TMP DP  RH  WIND    PRES   REMARKS
HERMISTON       CLEAR       59  44  57  S5      30.05R
#BOARDMAN 8SW   N/A         60  51  72  SW3     30.02S
#ECHO 8SW       N/A         57  44  62  SW1     30.05F
#I-84 EX 198 DOTN/A         62  42  48  NE3     N/A
#UMATILLA       N/A         60  46  60  CALM    29.97S
$$

ORZ507-241110-
NORTHERN FOOTHILLS OF THE BLUES

CITY            SKY/WX      TMP DP  RH  WIND    PRES   REMARKS
PENDLETON AIRPT CLEAR       56  39  53  E8      30.07S
#ADAMS 3WNW     N/A         56  43  62  CALM    30.03S
#ATHENA         N/A         50  43  77  CALM    30.05F
#CAYUSE         N/A         59  44  57  SE1     30.02R
#HELIX SCHOOL   N/A         52  42  69  CALM    30.03S
#HELIX 3N       N/A         56  41  57  CALM    30.05S
#HOLDMAN 5SE    N/A         52  41  66  CALM    30.06S
#HOLDMAN 6E     N/A         58  41  53  CALM    29.84S
#M-F GROVE ELEM N/A         64  39  40  CALM    30.03F
#M-FREEWATER 5SEN/A         62  43  50  E5      30.05F
#PENDLETON DNTN N/A         55  37  51  CALM    30.10S
#PDT AQUATIC CTRN/A         56  35  45  CALM    29.92S
#PDT SUNRIDGE   N/A         51  40  66  CALM    30.09S
#PENDLETON 7NW  N/A         53  39  59  CALM    32.29S
#PILOT ROCK 1S  N/A         57  35  43  SE2     30.09S
#PILOT ROCK     N/A         56  38  51  SW1     30.10S
#TUTUILLA       N/A         49  41  74  CALM    30.05S
#UMAPINE 2E     N/A         57  49  75  CALM    30.03R
#WESTON SCHOOL  N/A         60  39  46  CALM    29.93S

$$

ORZ508-241110-
SOUTHERN FOOTHILLS OF THE BLUES

CITY            SKY/WX      TMP DP  RH  WIND    PRES   REMARKS
LEXINGTON       CLEAR       59  41  51  SE12    30.11F
#AJAX           N/A         61  39  44  CALM    27.85F
#CONDON 5W      N/A         60  42  51  NW1     30.10F
#HEPPNER EOC    N/A         56  39  53  E7      29.96F
#HEPPNER 4NE    N/A         54  42  64  E1      30.02F
#LEXINGTON 2SE  N/A         57  41  55  SE6     30.05F
#RUGGS 5NE      N/A         54  35  48  SE1     30.27F
#RUGGS 2SW      N/A         58  36  44  SW7     30.04S

$$

ORZ502-503-241110-
BLUE MOUNTAINS

CITY            SKY/WX      TMP DP  RH  WIND    PRES   REMARKS
MEACHAM         CLEAR       40  35  82  CALM    30.17S
#BATTLE MTN DOT N/A         51  36  56  CALM    N/A
#CUTSFORTH PARK N/A         42  38  86  CALM    29.95F
#GREENHORN 9SW  N/A         42  36  79  CALM    30.16S
#HARDMAN 10S    N/A         61  34  36  N5      30.22S
#HEPPNER 15SE   N/A         48  39  71  CALM    25.68F
#LADD CYN SMT   N/A         46  36  68  CALM    N/A
#LADD CREEK ODOTN/A         51  39  63  SW2     N/A
#N POWDER DOT   N/A         49  41  74  N7      N/A
#PIKES PEAK     N/A         66  37  34  CALM    27.99S
#TOLLGATE       N/A         49  38  66  CALM    30.05F
#TROY SCHOOL    N/A         56  46  69  CALM    29.90S
#UKIAH          N/A         41  38  89  CALM    30.01S
#WESTON 4E      N/A         62  38  41  CALM    29.98F
$$

ORZ505-241110-
JOHN DAY BASIN

CITY            SKY/WX      TMP DP  RH  WIND    PRES   REMARKS
JOHN DAY        CLEAR       56  37  49  E7      30.15F
#DAYVILLE SCHOOLN/A         57  33  40  CALM    30.08F
#MITCHELL 8NW   N/A         62  37  39  CALM    30.19F
#MONUMENT HS    N/A         53  41  64  CALM    30.03S
#MT. VERNON 5SE N/A         56  37  49  CALM    30.11F
#SPRAY SCHOOL   N/A         53  N/A N/A CALM    N/A
$$

ORZ506-241110-
OCHOCO AND JOHN DAY HIGHLANDS

CITY            SKY/WX      TMP DP  RH  WIND    PRES   REMARKS
#BUCK CREEK DOT N/A         60  34  37  CALM    N/A
#HORSE RIDGE DO N/A         42  34  73  SE3     N/A
#PAULINA SCHOOL N/A         52  30  43  CALM    N/A
#PINE MTN OBS   N/A         55  33  43  CALM    N/A
#PRAIRIE CITY   N/A         47  39  74  CALM    30.30F
#SENECA         N/A         44  N/A N/A CALM    N/A
#SENECA 9NW     N/A         44  33  65  CALM    30.00S
$$

ORZ049-241110-
GRANDE RONDE VALLEY

CITY            SKY/WX      TMP DP  RH  WIND    PRES   REMARKS
LA GRANDE       CLEAR       50  34  54  SW5     30.12S
#COVE           N/A         50  42  74  NW2     30.15S
#COVE SCHOOL    N/A         49  39  68  CALM    30.14S
#COVE 6NW       N/A         48  40  74  CALM    30.01F
#ELGIN 3N       N/A         49  40  71  CALM    30.11S
#ELGIN 1E       N/A         48  40  74  CALM    N/A
#ISLAND CITY 4N N/A         53  51  93  CALM    30.12F
#LADD CYN DOT   N/A         56  40  55  S2      N/A
#UNION 1S       N/A         49  40  71  CALM    29.93F
$$

ORZ050-241110-
WALLOWA COUNTY

CITY            SKY/WX      TMP DP  RH  WIND    PRES   REMARKS
JOSEPH AIRPORT  CLEAR       50  37  61  CALM    N/A
#ENTERPRISE AP  N/A         49  29  46  CALM    30.09F
#ENTERPRISE HS  N/A         46  41  83  CALM    30.16F
#IMNAHA SCHOOL  N/A         59  47  64  CALM    30.09F
#JOSEPH 3N      N/A         44  37  76  CALM    30.17F
#JOSEPH 3W      N/A         N/A N/A N/A CALM    30.02F
#LOSTINE        N/A         47  40  76  CALM    29.85F
#LOSTINE 3SE    N/A         49  39  68  S5      30.14F
#MT HOWARD 8000 N/A         50  29  44  CALM    30.34F
#PROMISE 1S     N/A         50  43  77  CALM    30.13F
#WALLOWA SCHOOL N/A         45  41  86  CALM    30.11S



$$



USA.gov is the U.S. government's official web portal to all federal, state and local government web resources and services.